User: anonymous   Login
Location: ?????????
(38.5999°N, 22.7695°E)
Time: 23:49:40
(UTC+00:00)
Language:

Cosmos 2333 - Orbit

View from above orbital plane
View from above orbital plane
View from above satellite
View from above satellite

Ground track
Ground track

The orbit data is extracted from the following two-line orbital elements,

1 24297U 96051A   24194.57668737 -.00000203  00000-0 -81470-4 0  9995
2 24297  70.9043  18.6656 0026133 288.8238  71.0049 14.13584414437027
Epoch (UTC): 12 July 2024 13:50:25
Eccentricity: 0.0026133
inclination: 70.9043°
perigee height: 828 km
apogee height: 866 km
right ascension of ascending node: 18.6656°
argument of perigee: 288.8238°
revolutions per day: 14.13584414
mean anomaly at epoch: 71.0049°
orbit number at epoch: 43702

The dashed part of the orbit path shows where the satellite is in the earth's shadow,  

DLR